Clovis, NM

4:29 PM MDT on September 24, 2017 (GMT -0600)
Clovis Municipal

Weather History for KCVN - December, 2012

Change the Weather History Date:

Thursday, December 6, 2012

  Actual Average Record
Temperature  
Mean Temperature 52 °F -  
Max Temperature 66 °F 55 °F 71 °F (1946)
Min Temperature 37 °F 26 °F -4 °F (1950)
Degree Days  
Heating Degree Days 14    
Growing Degree Days 2 (Base 50)    
Moisture  
Dew Point 27 °F    
Average Humidity 39    
Maximum Humidity 65    
Minimum Humidity 26    
Precipitation  
Precipitation 0.00 in - - ()
Sea Level Pressure  
Sea Level Pressure 29.93 in    
Wind  
Wind Speed 14 mph (North)    
Max Wind Speed 20 mph    
Max Gust Speed 23 mph    
Visibility 10 miles    
Events      
Averages and records for this station are not official NWS values.
T = Trace of Precipitation, MM = Missing Value Source: NWS Daily Summary

Daily Weather History Graph

Daily Weather History Graph

Search for Another Location

Airport or City:

Trip Planner

Search our weather history database for the weather conditions in past years. The results will help you decide how hot, cold, wet, or windy it might be!

Date:

Astronomy

Dec. 06, 2012 Rise Set
Actual Time 6:45 AM MST 4:41 PM MST
Civil Twilight 6:17 AM MST 5:09 PM MST
Nautical Twilight 5:46 AM MST 5:40 PM MST
Astronomical Twilight 5:15 AM MST 6:11 PM MST
Moon No Moon Rise 11:53 AM MST (12/6)
Length of Visible Light 10h 52m
Length of Day
9h 56m
Waning Gibbous, 48% of the Moon is Illuminated
Dec 6
Waning Gibbous
Dec 13
New
Dec 19
First Quarter
Dec 28
Full
Jan 4
Last Quarter

Hourly Weather History & Observations

Time (MST) Temp. Windchill Dew Point Humidity Pressure Visibility Wind Dir Wind Speed Gust Speed Precip Events Conditions
12:15 AM 46.4 °F 39.5 °F 26.6 °F 46% 29.93 in 10.0 mi WSW 17.3 mph - N/A   Clear
12:35 AM 46.4 °F 40.4 °F 26.6 °F 46% 29.92 in 10.0 mi WSW 13.8 mph - N/A   Clear
12:55 AM 46.4 °F 40.1 °F 24.8 °F 43% 29.92 in 10.0 mi WSW 15.0 mph - N/A   Clear
1:15 AM 46.4 °F 39.5 °F 24.8 °F 43% 29.91 in 10.0 mi WSW 17.3 mph - N/A   Clear
1:35 AM 46.4 °F 39.0 °F 24.8 °F 43% 29.91 in 10.0 mi WSW 19.6 mph - N/A   Clear
1:55 AM 46.4 °F 39.5 °F 24.8 °F 43% 29.92 in 10.0 mi WSW 17.3 mph - N/A   Clear
2:15 AM 46.4 °F 39.5 °F 23.0 °F 40% 29.91 in 10.0 mi WSW 17.3 mph - N/A   Clear
2:35 AM 46.4 °F 39.5 °F 23.0 °F 40% 29.90 in 10.0 mi WSW 17.3 mph - N/A   Clear
2:55 AM 44.6 °F 37.8 °F 21.2 °F 39% 29.90 in 10.0 mi WSW 15.0 mph - N/A   Clear
3:15 AM 44.6 °F 37.4 °F 23.0 °F 43% 29.90 in 10.0 mi WSW 16.1 mph - N/A   Clear
3:35 AM 46.4 °F 39.8 °F 23.0 °F 40% 29.90 in 10.0 mi WSW 16.1 mph - N/A   Clear
3:55 AM 46.4 °F 39.5 °F 23.0 °F 40% 29.89 in 10.0 mi WSW 17.3 mph - N/A   Clear
4:15 AM 46.4 °F 39.2 °F 23.0 °F 40% 29.88 in 10.0 mi WSW 18.4 mph - N/A   Clear
4:35 AM 46.4 °F 40.1 °F 21.2 °F 37% 29.89 in 10.0 mi WSW 15.0 mph - N/A   Clear
4:55 AM 46.4 °F 39.8 °F 23.0 °F 40% 29.89 in 10.0 mi WSW 16.1 mph - N/A   Clear
5:15 AM 44.6 °F 39.2 °F 21.2 °F 39% 29.90 in 10.0 mi WSW 10.4 mph - N/A   Clear
5:35 AM 42.8 °F 41.1 °F 21.2 °F 42% 29.91 in 10.0 mi NNE 3.5 mph - N/A   Clear
5:55 AM 42.8 °F - 21.2 °F 42% 29.90 in 10.0 mi Calm Calm - N/A   Clear
6:15 AM 48.2 °F - 24.8 °F 40% 29.90 in 10.0 mi West 10.4 mph - N/A   Clear
6:35 AM 46.4 °F 39.8 °F 23.0 °F 40% 29.93 in 10.0 mi North 16.1 mph - N/A   Clear
6:55 AM 46.4 °F 39.8 °F 23.0 °F 40% 29.94 in 10.0 mi NNW 16.1 mph - N/A   Clear
7:15 AM 48.2 °F - 24.8 °F 40% 29.94 in 10.0 mi WNW 19.6 mph 23.0 mph N/A   Clear
7:35 AM 51.8 °F - 24.8 °F 35% 29.93 in 10.0 mi WNW 16.1 mph - N/A   Clear
7:55 AM 53.6 °F - 24.8 °F 33% 29.94 in 10.0 mi WNW 17.3 mph 21.9 mph N/A   Clear
8:15 AM 55.4 °F - 24.8 °F 31% 29.95 in 10.0 mi NW 16.1 mph - N/A   Clear
8:35 AM 57.2 °F - 24.8 °F 29% 29.94 in 10.0 mi NNW 12.7 mph - N/A   Clear
8:55 AM 59.0 °F - 24.8 °F 27% 29.95 in 10.0 mi North 17.3 mph - N/A   Clear
9:15 AM 60.8 °F - 26.6 °F 27% 29.96 in 10.0 mi North 16.1 mph 23.0 mph N/A   Clear
9:35 AM 60.8 °F - 26.6 °F 27% 29.96 in 10.0 mi NNE 17.3 mph 23.0 mph N/A   Clear
9:55 AM 62.6 °F - 28.4 °F 27% 29.97 in 10.0 mi North 16.1 mph - N/A   Clear
10:15 AM 62.6 °F - 28.4 °F 27% 29.97 in 10.0 mi North 16.1 mph - N/A   Clear
10:35 AM 62.6 °F - 28.4 °F 27% 29.96 in 10.0 mi North 18.4 mph - N/A   Clear
10:55 AM 62.6 °F - 28.4 °F 27% 29.96 in 10.0 mi North 15.0 mph - N/A   Clear
11:15 AM 62.6 °F - 28.4 °F 27% 29.95 in 10.0 mi North 10.4 mph 16.1 mph N/A   Clear
11:35 AM 62.6 °F - 28.4 °F 27% 29.94 in 10.0 mi North 10.4 mph - N/A   Clear
11:55 AM 64.4 °F - 30.2 °F 28% 29.93 in 10.0 mi North 15.0 mph 18.4 mph N/A   Clear
12:15 PM 64.4 °F - 30.2 °F 28% 29.92 in 10.0 mi NNE 8.1 mph - N/A   Clear
12:35 PM 66.2 °F - 30.2 °F 26% 29.92 in 10.0 mi North 11.5 mph - N/A   Clear
12:55 PM 66.2 °F - 30.2 °F 26% 29.91 in 10.0 mi NNW 8.1 mph 16.1 mph N/A   Clear
1:15 PM 64.4 °F - 30.2 °F 28% 29.91 in 10.0 mi NW 6.9 mph - N/A   Clear
1:35 PM 66.2 °F - 30.2 °F 26% 29.91 in 10.0 mi North 8.1 mph - N/A   Clear
1:55 PM 66.2 °F - 30.2 °F 26% 29.90 in 10.0 mi North 5.8 mph - N/A   Clear
2:15 PM 66.2 °F - 30.2 °F 26% 29.90 in 10.0 mi North 6.9 mph - N/A   Clear
2:35 PM 66.2 °F - 30.2 °F 26% 29.90 in 10.0 mi North 6.9 mph - N/A   Clear
2:55 PM 64.4 °F - 28.4 °F 26% 29.91 in 10.0 mi North 10.4 mph - N/A   Clear
3:15 PM 64.4 °F - 30.2 °F 28% 29.91 in 10.0 mi North 6.9 mph - N/A   Clear
3:35 PM 64.4 °F - 30.2 °F 28% 29.91 in 10.0 mi NNE 8.1 mph - N/A   Clear
3:55 PM 64.4 °F - 28.4 °F 26% 29.91 in 10.0 mi NNE 5.8 mph - N/A   Clear
4:15 PM 60.8 °F - 28.4 °F 29% 29.92 in 10.0 mi North 6.9 mph - N/A   Clear
4:35 PM 57.2 °F - 28.4 °F 33% 29.92 in 10.0 mi NE 9.2 mph - N/A   Clear
4:55 PM 55.4 °F - 26.6 °F 33% 29.91 in 10.0 mi ENE 11.5 mph - N/A   Clear
5:15 PM 53.6 °F - 28.4 °F 38% 29.92 in 10.0 mi NE 10.4 mph - N/A   Clear
5:35 PM 53.6 °F - 28.4 °F 38% 29.92 in 10.0 mi NE 10.4 mph - N/A   Clear
5:55 PM 51.8 °F - 28.4 °F 41% 29.92 in 10.0 mi NE 11.5 mph - N/A   Clear
6:15 PM 51.8 °F - 28.4 °F 41% 29.93 in 10.0 mi NE 11.5 mph - N/A   Clear
6:35 PM 50.0 °F - 28.4 °F 43% 29.93 in 10.0 mi NE 11.5 mph - N/A   Clear
6:55 PM 48.2 °F - 28.4 °F 46% 29.94 in 10.0 mi NE 10.4 mph - N/A   Clear
7:35 PM 46.4 °F 42.4 °F 28.4 °F 50% 29.95 in 10.0 mi ENE 8.1 mph - N/A   Clear
7:55 PM 44.6 °F 39.7 °F 28.4 °F 53% 29.94 in 10.0 mi NE 9.2 mph - N/A   Clear
8:15 PM 44.6 °F 39.2 °F 28.4 °F 53% 29.95 in 10.0 mi ENE 10.4 mph - N/A   Clear
8:35 PM 44.6 °F 38.8 °F 30.2 °F 57% 29.95 in 10.0 mi ENE 11.5 mph - N/A   Clear
8:55 PM 44.6 °F 38.8 °F 28.4 °F 53% 29.95 in 10.0 mi NE 11.5 mph - N/A   Clear
9:15 PM 42.8 °F 37.5 °F 28.4 °F 57% 29.95 in 10.0 mi NE 9.2 mph - N/A   Clear
9:35 PM 41.0 °F 36.4 °F 26.6 °F 57% 29.95 in 10.0 mi ENE 6.9 mph - N/A   Clear
9:55 PM 39.2 °F 35.9 °F 26.6 °F 61% 29.95 in 10.0 mi NE 4.6 mph - N/A   Clear
10:15 PM 39.2 °F 33.0 °F 26.6 °F 61% 29.95 in 10.0 mi NE 9.2 mph - N/A   Clear
10:35 PM 39.2 °F 33.6 °F 26.6 °F 61% 29.95 in 10.0 mi NNE 8.1 mph - N/A   Clear
10:55 PM 37.4 °F 32.1 °F 26.6 °F 65% 29.95 in 10.0 mi NNE 6.9 mph - N/A   Clear
11:15 PM 37.4 °F 32.1 °F 24.8 °F 60% 29.95 in 10.0 mi NNE 6.9 mph - N/A   Clear
11:35 PM 37.4 °F 32.8 °F 24.8 °F 60% 29.95 in 10.0 mi NE 5.8 mph - N/A   Clear
11:55 PM 37.4 °F 30.8 °F 24.8 °F 60% 29.94 in 10.0 mi NNE 9.2 mph - N/A   Clear